Showing default

QIANFAN-41, 62242

Orbit data source: Space-Track

QIANFAN-41, 62242 is a Chinese payload satellite in LEO that was launched on Thu, 05 Dec 2024 UTC via a CHANG ZHENG 6A launch vehicle from the Taiyaun Space Center, China (TSC). Payload-class satellites include a variety of spacecraft equipped with specific instruments for various scientific and technological missions. These include communications satellites like Starlink; space stations such as the ISS; scientific satellites like the Hubble; Earth observation satellites from companies like Planet Labs, Umbra, and HawkEye 360; GPS; miniature CubeSats for education and research; and military/defense satellites.

Loading next visibility...
Identifier
62242, 2024-232F
Orbit
LEO
Country
Flag of CNCN / PRC
Related business
Manufacturer
SECM
Mission
Operational Commercial Communications
Bus & Motor
QIANFAN, Unknown motor
Mass
267 kg wet, ~267 kg dry
Launch date (UTC)
2024-12-05 (1 year ago)
Launch vehicle
CHANG ZHENG 6A
Launch site
Taiyaun Space Center, China (TSC)
Object type
Payload
Rocket body
Debris
Shape & HBR
Box + 1 Pan, 5.0 m
Radar Cross Section
13.200 m², Large (>1 m²)

Expand to show TLE details & history
Last TLE update: 5 hours ago

TLE from 5 hours ago
0 QIANFAN-41
1 62242U 24232F   26035.16243605  .00000014  00000-0  27776-5 0  9991
2 62242  89.0008  35.7986 0015302  42.9306 317.3037 13.50984041106462
Epoch: 2026-02-04T03:53Z
TLE epoch observation values (Epoch: 2026-02-04T03:53:54.474Z)
Latitude
0.00001°
Longitude
-157.01135°
Altitude
1,063.225 km
Speed
7.324 km/s
True Right ascension
02h 23m 11s
True Declination
0° 00' 00"
Sunlit
Object was in daylight at epoch
Visualization orbit readout
Latitude
Unknown
Longitude
Unknown
Altitude
Unknown
Speed
Unknown
Apparent Right ascension
Unknown
Apparent Declination
Unknown
Sunlit
N/A
Visualization observer readout
Local Sidereal Time
10:44:45
Azimuth
Unknown
Elevation
Unknown
Doppler factor
Unknown
Orbital elements
Apogee altitude
1,077.082 km
Perigee altitude
1,054.301 km
Semi-major axis
7,443.828 km
Eccentricity
0.00153
Inclination
89.0008°
RAAN
35.7986°
Arg. of periapsis
42.9306°
True anomaly
317.18463°
Mean anomaly
317.3037°
Eccentric anomaly
317.24418°
Mean motion
3.37947 °/min
Orbital period
106.53 mins
BSTAR
0.0000027776
Loading maneuver chart data...
Computing Atmospheric mass density...
Loading historical data...
Loading historical data...
Loading historical data...
Loading historical data...
Loading historical data...
Loading historical data...
Loading historical data...

Documentation

Showing up to 5 results
|